Regional Weather Roundup
Issued by NWS

Home | Current Version | Previous Version | Text Only | Print | Product List | Glossary Off
Versions: 1 2 3 4 5 6 7 8 9 10 11 12 13 14 15 16 17 18 19 20 21 22 23 24 25 26 27 28 29 30 31 32 33 34 35 36 37 38 39 40 41 42 43 44 45 46 47 48 49 50

000
ASUS43 KMKX 250600
RWRWI

WISCONSIN REGIONAL WEATHER ROUNDUP
NATIONAL WEATHER SERVICE MILWAUKEE/SULLIVAN WI
100 AM CDT MON SEP 25 2017

NOTE: "FAIR" INDICATES FEW OR NO CLOUDS BELOW 12,000 FEET WITH NO
SIGNIFICANT WEATHER AND/OR OBSTRUCTIONS TO VISIBILITY.

WIZ001-002-006>008-014>016-023>028-250700-
NORTHWEST WISCONSIN

CITY           SKY/WX    TMP DP  RH WIND       PRES   REMARKS
SUPERIOR ARPT  CLOUDY    65  65 100 SW5       29.88R
ASHLAND        CLOUDY    69  63  81 W6        29.88F
6HR MIN TEMP:  69; 6HR MAX TEMP:  78;

HAYWARD        CLOUDY    74  63  68 SW7       29.93R
6HR MIN TEMP:  70; 6HR MAX TEMP:  77; 6HR PCP: TRACE;

SIREN          LGT RAIN  68  66  93 W6        29.91F
CUMBERLAND     CLOUDY    70  61  73 SW6       29.94R
RICE LAKE      CLOUDY    72  64  75 SW3       29.94R
CHETEK         MOCLDY    72  65  77 MISG      29.92S
LADYSMITH      CLEAR     72  62  71 SW5       29.96R
EAU CLAIRE     CLEAR     71  63  75 S6        29.91F
6HR MIN TEMP:  71; 6HR MAX TEMP:  82;

MENOMONIE      CLOUDY    73  64  73 CALM      29.93R
NEW RICHMOND   CLOUDY    69  64  84 W5        29.94S
OSCEOLA        CLOUDY    69  69 100 CALM      29.96S
$$

WIZ003>005-009-010-017-018-250700-
NORTH CENTRAL WISCONSIN

CITY           SKY/WX    TMP DP  RH WIND       PRES   REMARKS
MANITOWISH WTR NOT AVBL
ARBOR VITAE    CLEAR     73  60  65 S14       29.96S
WOODRUFF       CLEAR     73  60  65 S14       29.96S
RHINELANDER    CLEAR     69  60  73 S5        29.99S
6HR MIN TEMP:  69; 6HR MAX TEMP:  77;

EAGLE RIVER    CLEAR     66  58  75 CALM      29.97F
LAND O LAKES   CLEAR     69  60  74 S5        29.99F
PHILLIPS       PTCLDY    71  61  71 S10       29.94S
6HR MIN TEMP:  70; 6HR MAX TEMP:  76;

TOMAHAWK       CLEAR     64  58  83 CALM      29.98S
MEDFORD        CLEAR     65  59  80 S6        29.97S
MERRILL        CLEAR     65  61  85 SE6       29.98S
$$

WIZ029-030-035-036-043>047-250700-
CENTRAL WISCONSIN

CITY           SKY/WX    TMP DP  RH WIND       PRES   REMARKS
WAUSAU         CLEAR     67  60  78 SE6       29.96F
6HR MIN TEMP:  66; 6HR MAX TEMP:  79;

MOSINEE        CLEAR     66  59  77 SE5       29.99S
MARSHFIELD     CLEAR     67  59  75 S6        29.96F
6HR MIN TEMP:  66; 6HR MAX TEMP:  78;

STEVENS POINT  CLEAR     63  59  89 CALM      29.98F
WAUPACA        CLEAR     67  63  86 CALM      29.98F
WAUTOMA        CLEAR     62  61  96 CALM      29.99S
6HR MIN TEMP:  62; 6HR MAX TEMP:  76;

WISC RAPIDS    CLEAR     68  60  75 S3        29.98S
6HR MIN TEMP:  67; 6HR MAX TEMP:  79;

CAMP DOUGLAS   NOT AVBL
$$

WIZ011>013-019>022-031-037>040-048>050-250700-
NORTHEAST WISCONSIN

CITY           SKY/WX    TMP DP  RH WIND       PRES   REMARKS
ANTIGO         CLEAR     65  61  87 S5        30.01S
SHAWANO        CLEAR     70  63  79 CALM      29.97F
OCONTO         CLEAR     67  60  78 CALM      29.97F
STURGEON BAY   CLEAR     70  61  73 S7        29.99S
6HR MIN TEMP:  70; 6HR MAX TEMP:  73;

GREEN BAY      CLEAR     70  62  76 S5        29.98S
6HR MIN TEMP:  70; 6HR MAX TEMP:  79;

MANITOWOC      CLEAR     64  62  93 CALM      30.00F
6HR MIN TEMP:  63; 6HR MAX TEMP:  72;

APPLETON       CLEAR     68  55  64 S5        29.98S
CLINTONVILLE   CLEAR     66  61  82 CALM      29.98S
OSHKOSH        CLEAR     67  61  81 S6        29.98F
6HR MIN TEMP:  66; 6HR MAX TEMP:  79;

$$

WIZ032>034-041-042-053>061-250700-
SOUTHWEST WISCONSIN

CITY           SKY/WX    TMP DP  RH WIND       PRES   REMARKS
LA CROSSE      CLEAR     74  65  73 SE6       29.92F
6HR MIN TEMP:  73; 6HR MAX TEMP:  84;

SPARTA         CLEAR     67  62  83 CALM      29.96S
VIROQUA        CLEAR     72  63  73 S6        29.98S
BOSCOBEL       CLEAR     66  64  93 CALM      29.96S
6HR MIN TEMP:  65; 6HR MAX TEMP:  83;

PRAIRIE DU CHI CLEAR     70  61  72 E5        29.95S
PLATTEVILLE    CLEAR     71  63  74 SE6       29.99S
$$

WIZ056-057-062-063-064-067-068-250700-
SOUTH CENTRAL WISCONSIN

CITY           SKY/WX    TMP DP  RH WIND       PRES   REMARKS
REEDSBURG      CLEAR     66  62  88 CALM      29.97S
BARABOO/DELLS  CLEAR     69  59  70 S5        29.98S
LONE ROCK      NOT AVBL
MINERAL POINT  CLEAR     72  61  68 SE5       29.99F
MADISON        CLEAR     67  62  84 CALM      29.98F
6HR MIN TEMP:  66; 6HR MAX TEMP:  82;

MIDDLETON      CLEAR     65  62  90 CALM      30.00S
WATERTOWN      CLEAR     69  61  76 CALM      29.99F
MONROE         CLEAR     72  57  60 S8        29.99F
JANESVILLE     CLEAR     68  59  73 CALM      29.98F
$$

WIZ051-052-058>065-066-070>072-250700-
SOUTHEAST WISCONSIN

CITY           SKY/WX    TMP DP  RH WIND       PRES   REMARKS
MILWAUKEE      CLEAR     73  64  73 S3        30.00S
6HR MIN TEMP:  72; 6HR MAX TEMP:  80;

WAUKESHA       CLEAR     70  59  68 S3        30.02S
MILWAUKEE/TIMM CLEAR     68  55  64 CALM      30.01S
RACINE         CLEAR     69  66  90 S3        30.01F
6HR MIN TEMP:  68; 6HR MAX TEMP:  79;

BURLINGTON     CLEAR     60  60 100 CALM      30.00F
KENOSHA        CLEAR     68  62  81 S3        30.00F
6HR MIN TEMP:  66; 6HR MAX TEMP:  79;

FOND DU LAC    CLEAR     68  59  73 S5        29.99F
6HR MIN TEMP:  68; 6HR MAX TEMP:  80;

SHEBOYGAN      CLEAR     63  62  97 CALM      30.00S
6HR MIN TEMP:  62; 6HR MAX TEMP:  75;

WEST BEND        N/A     63  61  94 CALM      30.01S
JUNEAU         CLEAR     66  60  80 SE5       30.01S
$$

LSZ147-162-250700-
LAKE SUPERIOR

STATION/POSITION TIME  TEMP    WIND        PRES    WAVE
                       AIR SEA DIR/SP/G            HT/PER
                 (UTC) (F)     (DEG/KT/KT) (MB)    (FT/S)
W MID LAKE BUOY  0450   64 55  240/ 12/ 12 1011.0R   1
DEVILS ISLAND    0500   67     190/  3/  4 1011.0F
PORT WING        0340   67     110/  5/  6 1011.5F
SAXON HARBOR     0530   76     190/  4/  8 1011.5S
$$

LMZ867-665-643>646-250700-
LAKE MICHIGAN

STATION/POSITION TIME  TEMP    WIND        PRES    WAVE
                       AIR SEA DIR/SP/G            HT/PER
                 (UTC) (F)     (DEG/KT/KT) (MB)    (FT/S)
S GREEN BAY BUOY 0400   74 69  180/ 10/ 14 1015.0
N MID LAKE BUOY  0450   70 67  170/ 12/ 14 1015.6F   1/ 4
NORTHPORT PIER   0540   69     150/  6/ 10 1014.9S
KEWAUNEE LAKESHO 0530   67     180/  4/  5 1014.8S
SHEBOYGAN LAKESH 0500   71     200/  7/  7 1015.4F
PORT WASHINGTON  0540   69      CALM  /  2 1016.6S
ATWATER BUOY     0409   65 60  180/  6/  6 1016.2F
MILWAUKEE LAKESH 0530   70     160/  3/  3   N/A
S MID LAKE BUOY  0450   74 71  110/  8/  8 1016.1F   0
KENOSHA   LAKESH 0500   74     180/  7/ 10 1015.6
$$

TC  - TEMPERATURE IN CELSIUS
VSB - VISIBILITY IN STATUTE MILES
WCI - WIND CHILL INDEX
HX  - HEAT INDEX




USA.gov is the U.S. government's official web portal to all federal, state and local government web resources and services.